Regional Weather Roundup
Issued by NWS

Home | Current Version | Previous Version | Graphics & Text | Print | Product List | Glossary On
Versions: 1 2 3 4 5 6 7 8 9 10 11 12 13 14 15 16 17 18 19 20 21 22 23 24 25 26 27 28 29 30 31 32 33 34 35 36 37 38 39 40 41 42 43 44 45 46 47 48 49 50
000
ASUS43 KFSD 241710
RWRSD

WEATHER ROUNDUP FOR SOUTH DAKOTA
NATIONAL WEATHER SERVICE SIOUX FALLS SD
1200 PM CDT TUE MAY 24 2016

NOTE: "FAIR" INDICATES FEW OR NO CLOUDS BELOW 12,000 FEET WITH NO
SIGNIFICANT WEATHER AND/OR OBSTRUCTIONS TO VISIBILITY.


SDZ001>005-009-010-012>017-241800-
NORTHWEST AND NORTH CENTRAL SOUTH DAKOTA

CITY           SKY/WX    TMP DP  RH WIND       PRES   REMARKS
BUFFALO          N/A     67  40  37 E7        29.87R
FAITH            N/A     69  43  38 SE5       29.90S
MOBRIDGE       SUNNY     72  44  36 N3        29.87S
$$

SDZ012>016-024>037-041>051-057-063-072>074-241800-
SOUTHWEST AND SOUTH CENTRAL SOUTH DAKOTA

CITY           SKY/WX    TMP DP  RH WIND       PRES   REMARKS
RAPID CTY ARPT SUNNY     65  42  43 E9        29.92S
PIERRE         SUNNY     73  53  49 VRB3      29.86S
CUSTER         PTSUNNY   62  31  31 MISG      29.97S
ELLSWORTH AFB  MOSUNNY   66  42  41 E7        29.91F
PHILIP         SUNNY     70  51  51 E6        29.89S
PINE RIDGE     PTSUNNY   68  40  35 NE3       29.92S
WINNER         FAIR      74  51  44 W7        29.89R
$$

SDZ004>011-016>023-039-040-241800-
NORTHEAST SOUTH DAKOTA

CITY           SKY/WX    TMP DP  RH WIND       PRES   REMARKS
ABERDEEN       SUNNY     76  53  44 SE12      29.85S
WATERTOWN      SUNNY     71  61  70 SW6       29.88R
BROOKINGS      SUNNY     69  62  78 S5        29.88R
SISSETON         N/A     78  56  46 VRB7      29.84S
$$

SDZ017-020-022-023-036>040-048>070-241800-
SOUTHEAST SOUTH DAKOTA

CITY           SKY/WX    TMP DP  RH WIND       PRES   REMARKS
SIOUX FALLS    MOSUNNY   75  61  61 CALM      29.87S
HURON          SUNNY     74  55  51 CALM      29.86R
CHAMBERLAIN    SUNNY     76  53  45 W7        29.87S
MITCHELL       SUNNY     77  54  44 CALM      29.86R
YANKTON        SUNNY     73  61  64 CALM      29.85S
$$

ABBREVIATIONS USED IN REMARKS
   TC - TEMPERATURE IN CELSIUS
  WCI - WIND CHILL INDEX
   HX - HEAT INDEX
  VSB - VISIBILITY




USA.gov is the U.S. government's official web portal to all federal, state and local government web resources and services.